Location: Ciserano
(45.5833°N, 9.6000°E)
Time: 00:48:10
(UTC+00:00)

FALCON 9 DEB - Pass Details

Date: 17 April 2021
Orbit: 369 x 385 km, 53.0° (Epoch: 10 May)

Event Time Altitude Azimuth Distance (km) Brightness Sun altitude
Exits shadow 03:21:13 - 303° (WNW) 1,757 5.9 -12.3°
Reaches altitude 10° 03:22:07 10° 304° (NW) 1,384 5.4 -12.2°
Maximum altitude 03:25:12 75° 31° (NNE) 394 3.0 -11.7°
Drops below altitude 10° 03:28:17 10° 117° (ESE) 1,387 6.2 -11.2°
Sets 03:30:20 0° 119° (ESE) 2,240 7.2 -10.9°
